Location: Kapla
(46.2483°N, 15.0094°E)
Time: 14:30:45
(UTC+00:00)

Cosmos 2074 Rocket - Pass Details

Date: 03 March 2021
Orbit: 967 x 986 km, 82.9° (Epoch: 20 April)

Event Time Altitude Azimuth Distance (km) Brightness Sun altitude
Rises 17:33:18 0° 189° (S) 3,676 7.1 -8.4°
Reaches altitude 10° 17:35:48 10° 190° (S) 2,730 6.5 -8.9°
Maximum altitude 17:42:05 83° 278° (W) 993 4.1 -9.9°
Drops below altitude 10° 17:48:22 10° 7° (N) 2,735 6.3 -11.0°
Sets 17:50:54 0° 9° (N) 3,684 7.0 -11.5°
